This demonstration page uses our WeatherBlox Daily Observations layout. Learn more.

Left ArrowRight Arrow

41.86663, -103.66717

Hourly Observations for April 4, 2017

Temp ( °F °C ) Dew Point ( °F °C ) Humidity (%) Winds ( mph kmh ) Pressure ( in mb ) Visibility ( mi km ) Precip ( " mm )
12:53 am 00:53 Clear 33 0.6 29 -1.7 85 85 W 9 15 29.89 1012 10 16.0934 N/A
1:53 am 01:53 Clear 31 -0.6 28 -2.2 89 89 WNW 6 9 29.9 1013 10 16.0934 N/A
2:49 am 02:49 Cloudy 34 1 30 -1 87 87 W 6 9 30.03 1017 10 16.0934 N/A
2:53 am 02:53 Cloudy 34 1.1 30 -1.1 85 85 W 5 7 29.91 1013 10 16.0934 N/A
3:53 am 03:53 Cloudy 34 1.1 31 -0.6 89 89 NW 9 15 29.9 1013 10 16.0934 N/A
4:33 am 04:33 Cloudy 34 1.1 30 -1.1 85 85 NW 8 13 30.03 1017 10 16.0934 N/A
4:53 am 04:53 Cloudy 34 1.1 31 -0.6 89 89 NW 6 9 29.92 1013 10 16.0934 N/A
5:25 am 05:25 Cloudy 34 1.1 31 -0.6 89 89 WNW 6 9 30.03 1017 10 16.0934 N/A
5:53 am 05:53 Cloudy 35 1.7 31 -0.6 85 85 W 6 9 29.94 1014 10 16.0934 N/A
6:12 am 06:12 Cloudy 36 2 30 -1 81 81 WNW 6 9 30 1016 10 16.0934 N/A
6:37 am 06:37 Cloudy 35 1.7 31 -0.6 85 85 WNW 6 9 30 1016 10 16.0934 N/A
6:53 am 06:53 Cloudy 35 1.7 31 -0.6 85 85 WNW 6 9 29.96 1015 10 16.0934 N/A
7:03 am 07:03 Cloudy 36 2 30 -1 81 81 NW 5 7 30 1016 10 16.0934 N/A
7:23 am 07:23 Cloudy 35 1.7 32 undefined 89 89 NW 6 9 30.06 1018 10 16.0934 N/A
7:53 am 07:53 Cloudy 36 2.2 32 undefined 86 86 NW 7 11 29.98 1015 10 16.0934 N/A
8:53 am 08:53 Cloudy 38 3.3 33 0.6 83 83 NNW 7 11 30 1016 10 16.0934 N/A
9:53 am 09:53 Cloudy 39 3.9 32 undefined 76 76 NNE 13 20 30.03 1017 10 16.0934 N/A
10:53 am 10:53 Cloudy with Light Rain 39 3.9 33 0.6 79 79 NNE 10 17 30.06 1018 10 16.0934 N/A
11:53 am 11:53 Cloudy with Light Rain 41 5 33 0.6 73 73 undefined N/A 30.05 1018 10 16.0934 N/A
12:20 pm 12:20 Cloudy 43 6 32 undefined 66 66 NNE 12 19 30 1016 10 16.0934 N/A
12:53 pm 12:53 Cloudy 43 6.1 32 undefined 65 65 NNE 15 24 30.04 1017 10 16.0934 N/A
1:53 pm 13:53 Cloudy 44 6.7 33 0.6 65 65 NNE 17 28 30.04 1017 10 16.0934 N/A
2:53 pm 14:53 Cloudy 47 8.3 32 undefined 56 56 NNE 15 24 30.02 1017 10 16.0934 N/A
3:53 pm 15:53 Sunny 46 7.8 33 0.6 61 61 NNE 14 22 30.04 1017 10 16.0934 N/A
4:53 pm 16:53 Cloudy 44 6.7 33 0.6 65 65 NNE 9 15 30.06 1018 10 16.0934 0.01 0.254
5:53 pm 17:53 Mostly Cloudy 47 8.3 26 -3.3 44 44 N 16 26 30.06 1018 10 16.0934 N/A
6:53 pm 18:53 Partly Cloudy 45 7.2 25 -3.9 46 46 NNW 13 20 30.09 1019 10 16.0934 N/A
7:53 pm 19:53 Clear 38 3.3 25 -3.9 60 60 NNW 8 13 30.13 1020 10 16.0934 N/A
8:53 pm 20:53 Clear 33 0.6 25 -3.9 72 72 NW 6 9 30.17 1022 10 16.0934 N/A
9:53 pm 21:53 Clear 31 -0.6 24 -4.4 76 76 NW 6 9 30.19 1023 10 16.0934 N/A
10:53 pm 22:53 Mostly Cloudy 32 undefined 25 -3.9 75 75 WNW 7 11 30.19 1022 10 16.0934 N/A
11:53 pm 23:53 Clear 30 -1.1 24 -4.4 79 79 W 5 7 30.19 1022 10 16.0934 N/A

Powered by AerisWeather